Location: Eaton Estates
(41.3089°N, 82.0057°W)
Time: 08:07:51
(UTC+00:00)

Cosmos 1782 - Pass Details

Date: 17 June 2021
Orbit: 537 x 549 km, 82.5° (Epoch: 28 July)

Event Time Altitude Azimuth Distance (km) Brightness Sun altitude
Rises 08:52:49 0° 345° (NNW) 2,714 6.8 -9.9°
Reaches altitude 10° 08:55:03 10° 338° (NNW) 1,819 5.8 -9.6°
Maximum altitude 08:58:51 42° 267° (W) 784 3.3 -9.1°
Drops below altitude 10° 09:02:37 10° 196° (SSW) 1,812 4.9 -8.6°
Enters shadow 09:03:27 - 193° (SSW) 2,140 5.3 -8.5°
